• In Belarus
  • List of Countries
  • For 7 days
  • Water Temperature
  • Weather Map
  • Weather Widgets
  • user-avatar
    Login

    Hourly Weather Pyetrykaw

    Today, 28 February, Friday

    Time Temperature Precipitation Wind Pressure Humidity
    00:00 -1°C° 0 mm 2 mps 738 mmHg 82%
    01:00 -1°C° 0 mm 2 mps 739 mmHg 83%
    02:00 -1°C° 0 mm 2 mps 739 mmHg 84%
    03:00 -2°C° 0 mm 2 mps 739 mmHg 84%
    04:00 -2°C° 0 mm 2 mps 739 mmHg 84%
    05:00 -2°C° 0 mm 2 mps 740 mmHg 84%
    06:00 -2°C° 0 mm 3 mps 740 mmHg 83%
    07:00 -1°C° 0 mm 3 mps 740 mmHg 81%
    08:00 -1°C° 0 mm 3 mps 740 mmHg 79%
    09:00 -1°C° 0 mm 4 mps 741 mmHg 72%
    10:00 0°C° 0 mm 4 mps 741 mmHg 64%
    11:00 +1°C° 0 mm 4 mps 741 mmHg 57%
    12:00 +3°C° 0 mm 4 mps 742 mmHg 56%
    13:00 +3°C° 0 mm 4 mps 742 mmHg 56%
    14:00 +2°C° 0 mm 5 mps 742 mmHg 56%
    15:00 +3°C° 0 mm 4 mps 742 mmHg 60%
    16:00 +2°C° 0 mm 3 mps 743 mmHg 63%
    17:00 +2°C° 0 mm 3 mps 743 mmHg 67%
    18:00 +1°C° 0 mm 3 mps 744 mmHg 70%
    19:00 +2°C° 0 mm 2 mps 744 mmHg 74%
    20:00 +1°C° 0 mm 2 mps 745 mmHg 78%
    21:00 +1°C° 0 mm 2 mps 745 mmHg 80%
    22:00 -1°C° 0 mm 2 mps 745 mmHg 83%
    23:00 -1°C° 0 mm 2 mps 745 mmHg 85%

    Tomorrow, 29 February, Saturday

    Time Temperature Precipitation Wind Pressure Humidity
    00:00 -1°C° 0 mm 2 mps 746 mmHg 86%
    01:00 -2°C° 0 mm 2 mps 746 mmHg 86%
    02:00 -2°C° 0 mm 2 mps 747 mmHg 86%
    03:00 -2°C° 0 mm 2 mps 747 mmHg 86%
    04:00 -2°C° 0 mm 2 mps 747 mmHg 86%
    05:00 -2°C° 0 mm 3 mps 747 mmHg 85%
    06:00 -2°C° 0 mm 3 mps 747 mmHg 84%
    07:00 -2°C° 0 mm 3 mps 747 mmHg 83%
    08:00 -1°C° 0 mm 3 mps 747 mmHg 82%
    09:00 -1°C° 0 mm 4 mps 747 mmHg 77%
    10:00 0°C° 0 mm 4 mps 747 mmHg 72%
    11:00 +3°C° 0 mm 4 mps 747 mmHg 68%
    12:00 +3°C° 0 mm 4 mps 747 mmHg 67%
    13:00 +3°C° 0 mm 4 mps 747 mmHg 66%
    14:00 +3°C° 0 mm 4 mps 748 mmHg 65%
    15:00 +3°C° 0 mm 3 mps 747 mmHg 68%
    16:00 +3°C° 0 mm 3 mps 747 mmHg 70%
    17:00 +3°C° 0 mm 2 mps 747 mmHg 73%
    18:00 +2°C° 0 mm 2 mps 747 mmHg 77%
    19:00 +1°C° 0 mm 2 mps 748 mmHg 81%
    20:00 +1°C° 0 mm 2 mps 748 mmHg 85%
    21:00 0°C° 0 mm 3 mps 748 mmHg 84%
    22:00 -1°C° 0 mm 3 mps 748 mmHg 83%
    23:00 -1°C° 0 mm 3 mps 748 mmHg 82%

    Day after tomorrow, 1 March, Sunday

    Time Temperature Precipitation Wind Pressure Humidity
    00:00 0°C° 0 mm 3 mps 748 mmHg 79%
    01:00 -1°C° 0 mm 4 mps 747 mmHg 77%
    02:00 -1°C° 0 mm 4 mps 747 mmHg 74%
    03:00 -1°C° 0 mm 4 mps 747 mmHg 73%
    04:00 -1°C° 0 mm 4 mps 747 mmHg 71%
    05:00 -1°C° 0 mm 4 mps 747 mmHg 69%
    06:00 0°C° 0 mm 4 mps 746 mmHg 69%
    07:00 0°C° 0 mm 5 mps 746 mmHg 70%
    08:00 0°C° 0 mm 5 mps 746 mmHg 71%
    09:00 +1°C° 0 mm 5 mps 746 mmHg 67%
    10:00 +2°C° 0 mm 6 mps 746 mmHg 63%
    11:00 +3°C° 0 mm 6 mps 746 mmHg 59%
    12:00 +4°C° 0 mm 6 mps 746 mmHg 58%
    13:00 +5°C° 0 mm 5 mps 745 mmHg 57%
    14:00 +5°C° 0 mm 5 mps 745 mmHg 56%
    15:00 +5°C° 0 mm 4 mps 745 mmHg 58%
    16:00 +5°C° 0 mm 4 mps 745 mmHg 61%
    17:00 +5°C° 0 mm 3 mps 745 mmHg 63%
    18:00 +5°C° 0 mm 3 mps 745 mmHg 66%
    19:00 +4°C° 0 mm 3 mps 745 mmHg 68%
    20:00 +4°C° 0 mm 3 mps 745 mmHg 71%
    21:00 +4°C° 0 mm 3 mps 745 mmHg 75%
    22:00 +3°C° 0 mm 3 mps 745 mmHg 79%
    23:00 +3°C° 0 mm 3 mps 745 mmHg 83%

    2 March, Monday

    Time Temperature Precipitation Wind Pressure Humidity
    00:00 +3°C° 0 mm 3 mps 745 mmHg 84%
    01:00 +2°C° 0 mm 3 mps 745 mmHg 85%
    02:00 +3°C° 0 mm 2 mps 745 mmHg 86%
    03:00 +3°C° 0 mm 2 mps 745 mmHg 86%
    04:00 +3°C° 0 mm 2 mps 744 mmHg 87%
    05:00 +2°C° 0 mm 2 mps 744 mmHg 88%
    06:00 +1°C° 0 mm 3 mps 744 mmHg 88%
    07:00 +1°C° 0 mm 3 mps 744 mmHg 87%
    08:00 +2°C° 0 mm 3 mps 744 mmHg 87%
    09:00 +2°C° 0 mm 3 mps 744 mmHg 85%
    10:00 +3°C° 0 mm 3 mps 744 mmHg 83%
    11:00 +4°C° 0 mm 3 mps 744 mmHg 81%
    12:00 +4°C° 0 mm 4 mps 743 mmHg 80%
    13:00 +5°C° 0 mm 4 mps 743 mmHg 79%
    14:00 +5°C° 0 mm 4 mps 743 mmHg 78%
    15:00 +5°C° 0 mm 4 mps 742 mmHg 77%
    16:00 +5°C° 0 mm 4 mps 742 mmHg 76%
    17:00 +5°C° 0 mm 4 mps 741 mmHg 75%
    18:00 +5°C° 0 mm 5 mps 741 mmHg 75%
    19:00 +5°C° 0 mm 5 mps 741 mmHg 75%
    20:00 +4°C° 0 mm 6 mps 741 mmHg 75%
    21:00 +3°C° 0.4 mm 6 mps 740 mmHg 78%
    22:00 +3°C° 0.4 mm 6 mps 740 mmHg 82%
    23:00 +3°C° 0.4 mm 6 mps 740 mmHg 86%

    3 March, Tuesday

    Time Temperature Precipitation Wind Pressure Humidity
    00:00 +3°C° 0.4 mm 5 mps 739 mmHg 88%
    01:00 +3°C° 0.4 mm 5 mps 739 mmHg 90%
    02:00 +4°C° 0.4 mm 4 mps 739 mmHg 92%
    03:00 +5°C° 0.1 mm 4 mps 739 mmHg 91%
    04:00 +5°C° 0.1 mm 4 mps 739 mmHg 91%
    05:00 +5°C° 0.1 mm 3 mps 739 mmHg 91%
    06:00 +5°C° 0 mm 3 mps 740 mmHg 91%
    07:00 +5°C° 0 mm 4 mps 740 mmHg 91%
    08:00 +5°C° 0 mm 4 mps 741 mmHg 91%
    09:00 +6°C° 0 mm 4 mps 742 mmHg 86%
    10:00 +6°C° 0 mm 4 mps 742 mmHg 82%
    11:00 +7°C° 0 mm 4 mps 743 mmHg 78%
    12:00 +9°C° 0 mm 3 mps 743 mmHg 74%
    13:00 +9°C° 0 mm 3 mps 743 mmHg 70%
    14:00 +10°C° 0 mm 2 mps 743 mmHg 66%
    15:00 +11°C° 0 mm 1 mps 743 mmHg 67%
    16:00 +10°C° 0 mm 1 mps 743 mmHg 68%
    17:00 +9°C° 0 mm 0 mps 744 mmHg 69%
    18:00 +9°C° 0 mm 1 mps 744 mmHg 73%
    19:00 +7°C° 0 mm 2 mps 744 mmHg 77%
    20:00 +7°C° 0 mm 2 mps 744 mmHg 80%
    21:00 +7°C° 0 mm 3 mps 744 mmHg 81%
    22:00 +7°C° 0 mm 3 mps 744 mmHg 82%
    23:00 +7°C° 0 mm 3 mps 744 mmHg 82%

    4 March, Wednesday

    Time Temperature Precipitation Wind Pressure Humidity
    00:00 +7°C° 0 mm 3 mps 743 mmHg 83%
    01:00 +6°C° 0 mm 4 mps 743 mmHg 83%
    02:00 +6°C° 0 mm 4 mps 743 mmHg 83%
    03:00 +7°C° 0 mm 3 mps 742 mmHg 86%
    04:00 +5°C° 0 mm 3 mps 742 mmHg 88%
    05:00 +5°C° 0 mm 3 mps 742 mmHg 91%
    06:00 +5°C° 0 mm 3 mps 742 mmHg 92%
    07:00 +6°C° 0 mm 2 mps 741 mmHg 93%
    08:00 +6°C° 0 mm 2 mps 741 mmHg 95%
    09:00 +7°C° 0 mm 2 mps 741 mmHg 92%
    10:00 +9°C° 0 mm 3 mps 741 mmHg 88%
    11:00 +10°C° 0 mm 3 mps 741 mmHg 85%
    12:00 +10°C° 0 mm 3 mps 741 mmHg 83%
    13:00 +12°C° 0 mm 2 mps 741 mmHg 82%
    14:00 +12°C° 0 mm 2 mps 741 mmHg 80%
    15:00 +12°C° 0.2 mm 2 mps 741 mmHg 84%
    16:00 +10°C° 0.2 mm 3 mps 740 mmHg 88%
    17:00 +10°C° 0.2 mm 3 mps 740 mmHg 93%
    18:00 +9°C° 0.3 mm 2 mps 740 mmHg 94%
    19:00 +9°C° 0.3 mm 2 mps 740 mmHg 95%
    20:00 +9°C° 0.3 mm 2 mps 740 mmHg 96%
    21:00 +9°C° 0.1 mm 2 mps 740 mmHg 95%
    22:00 +9°C° 0.1 mm 2 mps 740 mmHg 94%
    23:00 +9°C° 0.1 mm 1 mps 740 mmHg 94%
    Show more